Year,Month,Day,Hour,Minute,Value (Times are PST for temperature in C)
2015,10,16,00,00,10.70
2015,10,16,00,01,10.70
2015,10,16,00,02,10.70
2015,10,16,00,03,10.70
2015,10,16,00,04,10.70
2015,10,16,00,05,10.70
2015,10,16,00,06,10.70
2015,10,16,00,07,10.70
2015,10,16,00,08,10.70
2015,10,16,00,09,10.70
2015,10,16,00,10,10.70
2015,10,16,00,11,10.70
2015,10,16,00,12,10.70
2015,10,16,00,13,10.70
2015,10,16,00,14,10.70
2015,10,16,00,15,10.70
2015,10,16,00,16,10.70
2015,10,16,00,17,10.60
2015,10,16,00,18,10.50
2015,10,16,00,19,10.30
2015,10,16,00,20,10.20
2015,10,16,00,21,10.20
2015,10,16,00,22,10.20
2015,10,16,00,23,10.20
2015,10,16,00,24,10.20
2015,10,16,00,25,10.20
2015,10,16,00,26,10.20
2015,10,16,00,27,10.20
2015,10,16,00,28,10.20
2015,10,16,00,29,10.10
2015,10,16,00,30,10.10
2015,10,16,00,31,10.10
2015,10,16,00,32,10.00
2015,10,16,00,33,9.90
2015,10,16,00,34,9.90
2015,10,16,00,35,9.90
2015,10,16,00,36,10.00
2015,10,16,00,37,10.00
2015,10,16,00,38,10.10
2015,10,16,00,39,10.10
2015,10,16,00,40,10.10
2015,10,16,00,41,10.10
2015,10,16,00,42,10.10
2015,10,16,00,43,10.10
2015,10,16,00,44,10.10
2015,10,16,00,45,10.10
2015,10,16,00,46,10.10
2015,10,16,00,47,10.10
2015,10,16,00,48,10.00
2015,10,16,00,49,10.00
2015,10,16,00,50,10.00
2015,10,16,00,51,9.90
2015,10,16,00,52,9.90
2015,10,16,00,53,9.90
2015,10,16,00,54,9.90
2015,10,16,00,55,10.00
2015,10,16,00,56,10.00
2015,10,16,00,57,10.00
2015,10,16,00,58,10.00
2015,10,16,00,59,10.10
2015,10,16,01,00,10.10
2015,10,16,01,01,10.10
2015,10,16,01,02,10.10
2015,10,16,01,03,10.00
2015,10,16,01,04,10.00
2015,10,16,01,05,9.90
2015,10,16,01,06,9.90
2015,10,16,01,07,9.80
2015,10,16,01,08,9.80
2015,10,16,01,09,9.80
2015,10,16,01,10,9.80
2015,10,16,01,11,9.80
2015,10,16,01,12,9.80
2015,10,16,01,13,9.80
2015,10,16,01,14,9.80
2015,10,16,01,15,9.80
2015,10,16,01,16,9.80
2015,10,16,01,17,9.80
2015,10,16,01,18,9.80
2015,10,16,01,19,9.80
2015,10,16,01,20,9.80
2015,10,16,01,21,9.80
2015,10,16,01,22,9.80
2015,10,16,01,23,9.80
2015,10,16,01,24,9.80
2015,10,16,01,25,9.80
2015,10,16,01,26,9.90
2015,10,16,01,27,9.80
2015,10,16,01,28,9.80
2015,10,16,01,29,9.90
2015,10,16,01,30,9.90
2015,10,16,01,31,9.90
2015,10,16,01,32,9.90
2015,10,16,01,33,10.00
2015,10,16,01,34,10.00
2015,10,16,01,35,10.00
2015,10,16,01,36,10.00
2015,10,16,01,37,10.00
2015,10,16,01,38,9.90
2015,10,16,01,39,9.90
2015,10,16,01,40,9.90
2015,10,16,01,41,9.90
2015,10,16,01,42,9.90
2015,10,16,01,43,9.90
2015,10,16,01,44,9.90
2015,10,16,01,45,9.80
2015,10,16,01,46,9.80
2015,10,16,01,47,9.80
2015,10,16,01,48,9.80
2015,10,16,01,49,9.70
2015,10,16,01,50,9.60
2015,10,16,01,51,9.60
2015,10,16,01,52,9.60
2015,10,16,01,53,9.60
2015,10,16,01,54,9.60
2015,10,16,01,55,9.60
2015,10,16,01,56,9.50
2015,10,16,01,57,9.50
2015,10,16,01,58,9.50
2015,10,16,01,59,9.40
2015,10,16,02,00,9.40
2015,10,16,02,01,9.50
2015,10,16,02,02,9.50
2015,10,16,02,03,9.50
2015,10,16,02,04,9.50
2015,10,16,02,05,9.60
2015,10,16,02,06,9.50
2015,10,16,02,07,9.60
2015,10,16,02,08,9.60
2015,10,16,02,09,9.60
2015,10,16,02,10,9.50
2015,10,16,02,11,9.50
2015,10,16,02,12,9.60
2015,10,16,02,13,9.60
2015,10,16,02,14,9.50
2015,10,16,02,15,9.40
2015,10,16,02,16,9.40
2015,10,16,02,17,9.30
2015,10,16,02,18,9.30
2015,10,16,02,19,9.30
2015,10,16,02,20,9.30
2015,10,16,02,21,9.30
2015,10,16,02,22,9.30
2015,10,16,02,23,9.30
2015,10,16,02,24,9.30
2015,10,16,02,25,9.40
2015,10,16,02,26,9.50
2015,10,16,02,27,9.60
2015,10,16,02,28,9.60
2015,10,16,02,29,9.70
2015,10,16,02,30,9.70
2015,10,16,02,31,9.70
2015,10,16,02,32,9.70
2015,10,16,02,33,9.70
2015,10,16,02,34,9.70
2015,10,16,02,35,9.70
2015,10,16,02,36,9.70
2015,10,16,02,37,9.70
2015,10,16,02,38,9.70
2015,10,16,02,39,9.60
2015,10,16,02,40,9.60
2015,10,16,02,41,9.50
2015,10,16,02,42,9.60
2015,10,16,02,43,9.60
2015,10,16,02,44,9.70
2015,10,16,02,45,9.70
2015,10,16,02,46,9.90
2015,10,16,02,47,10.20
2015,10,16,02,48,10.50
2015,10,16,02,49,10.70
2015,10,16,02,50,10.90
2015,10,16,02,51,11.10
2015,10,16,02,52,11.20
2015,10,16,02,53,11.40
2015,10,16,02,54,11.50
2015,10,16,02,55,11.70
2015,10,16,02,56,11.90
2015,10,16,02,57,12.10
2015,10,16,02,58,12.20
2015,10,16,02,59,12.30
2015,10,16,03,00,12.40
2015,10,16,03,01,12.50
2015,10,16,03,02,12.50
2015,10,16,03,03,12.60
2015,10,16,03,04,12.60
2015,10,16,03,05,12.60
2015,10,16,03,06,12.60
2015,10,16,03,07,12.50
2015,10,16,03,08,12.40
2015,10,16,03,09,12.30
2015,10,16,03,10,12.20
2015,10,16,03,11,12.10
2015,10,16,03,12,12.00
2015,10,16,03,13,11.90
2015,10,16,03,14,11.70
2015,10,16,03,15,11.60
2015,10,16,03,16,11.50
2015,10,16,03,17,11.40
2015,10,16,03,18,11.50
2015,10,16,03,19,11.60
2015,10,16,03,20,11.80
2015,10,16,03,21,12.00
2015,10,16,03,22,12.10
2015,10,16,03,23,12.20
2015,10,16,03,24,12.30
2015,10,16,03,25,12.30
2015,10,16,03,26,12.30
2015,10,16,03,27,12.30
2015,10,16,03,28,12.30
2015,10,16,03,29,12.20
2015,10,16,03,30,12.20
2015,10,16,03,31,12.20
2015,10,16,03,32,12.10
2015,10,16,03,33,12.10
2015,10,16,03,34,12.00
2015,10,16,03,35,12.00
2015,10,16,03,36,11.90
2015,10,16,03,37,11.90
2015,10,16,03,38,11.90
2015,10,16,03,39,11.80
2015,10,16,03,40,11.80
2015,10,16,03,41,11.80
2015,10,16,03,42,11.80
2015,10,16,03,43,11.80
2015,10,16,03,44,11.90
2015,10,16,03,45,11.90
2015,10,16,03,46,11.90
2015,10,16,03,47,11.90
2015,10,16,03,48,11.80
2015,10,16,03,49,11.60
2015,10,16,03,50,11.40
2015,10,16,03,51,11.20
2015,10,16,03,52,11.00
2015,10,16,03,53,10.80
2015,10,16,03,54,10.70
2015,10,16,03,55,10.70
2015,10,16,03,56,10.70
2015,10,16,03,57,10.70
2015,10,16,03,58,10.70
2015,10,16,03,59,10.70
2015,10,16,04,00,10.70
2015,10,16,04,01,10.80
2015,10,16,04,02,10.80
2015,10,16,04,03,10.80
2015,10,16,04,04,10.80
2015,10,16,04,05,10.80
2015,10,16,04,06,10.90
2015,10,16,04,07,10.90
2015,10,16,04,08,10.90
2015,10,16,04,09,10.90
2015,10,16,04,10,10.90
2015,10,16,04,11,10.90
2015,10,16,04,12,10.80
2015,10,16,04,13,10.80
2015,10,16,04,14,10.80
2015,10,16,04,15,10.80
2015,10,16,04,16,10.80
2015,10,16,04,17,10.80
2015,10,16,04,18,10.80
2015,10,16,04,19,10.80
2015,10,16,04,20,10.80
2015,10,16,04,21,10.90
2015,10,16,04,22,10.90
2015,10,16,04,23,10.90
2015,10,16,04,24,10.90
2015,10,16,04,25,10.90
2015,10,16,04,26,10.90
2015,10,16,04,27,10.90
2015,10,16,04,28,10.90
2015,10,16,04,29,10.90
2015,10,16,04,30,10.90
2015,10,16,04,31,10.80
2015,10,16,04,32,10.80
2015,10,16,04,33,10.80
2015,10,16,04,34,10.80
2015,10,16,04,35,10.80
2015,10,16,04,36,10.80
2015,10,16,04,37,10.80
2015,10,16,04,38,10.90
2015,10,16,04,39,11.00
2015,10,16,04,40,11.10
2015,10,16,04,41,11.20
2015,10,16,04,42,11.30
2015,10,16,04,43,11.40
2015,10,16,04,44,11.40
2015,10,16,04,45,11.40
2015,10,16,04,46,11.40
2015,10,16,04,47,11.50
2015,10,16,04,48,12.00
2015,10,16,04,49,12.10
2015,10,16,04,50,12.10
2015,10,16,04,51,12.20
2015,10,16,04,52,12.30
2015,10,16,04,53,12.40
2015,10,16,04,54,12.50
2015,10,16,04,55,12.60
2015,10,16,04,56,12.70
2015,10,16,04,57,12.90
2015,10,16,04,58,13.00
2015,10,16,04,59,13.10
2015,10,16,05,00,13.20
2015,10,16,05,01,13.30
2015,10,16,05,02,13.40
2015,10,16,05,03,13.40
2015,10,16,05,04,13.40
2015,10,16,05,05,13.40
2015,10,16,05,06,13.40
2015,10,16,05,07,13.40
2015,10,16,05,08,13.40
2015,10,16,05,09,13.40
2015,10,16,05,10,13.40
2015,10,16,05,11,13.40
2015,10,16,05,12,13.40
2015,10,16,05,13,13.40
2015,10,16,05,14,13.40
2015,10,16,05,15,13.50
2015,10,16,05,16,13.50
2015,10,16,05,17,13.50
2015,10,16,05,18,13.50
2015,10,16,05,19,13.50
2015,10,16,05,20,13.60
2015,10,16,05,21,13.60
2015,10,16,05,22,13.60
2015,10,16,05,23,13.70
2015,10,16,05,24,13.70
2015,10,16,05,25,13.80
2015,10,16,05,26,13.90
2015,10,16,05,27,13.90
2015,10,16,05,28,14.00
2015,10,16,05,29,14.00
2015,10,16,05,30,14.10
2015,10,16,05,31,14.20
2015,10,16,05,32,14.20
2015,10,16,05,33,14.30
2015,10,16,05,34,14.40
2015,10,16,05,35,14.50
2015,10,16,05,36,14.50
2015,10,16,05,37,14.60
2015,10,16,05,38,14.60
2015,10,16,05,39,14.70
2015,10,16,05,40,14.70
2015,10,16,05,41,14.70
2015,10,16,05,42,14.70
2015,10,16,05,43,14.70
2015,10,16,05,44,14.70
2015,10,16,05,45,14.70
2015,10,16,05,46,14.70
2015,10,16,05,47,14.70
2015,10,16,05,48,14.70
2015,10,16,05,49,14.70
2015,10,16,05,50,14.60
2015,10,16,05,51,14.60
2015,10,16,05,52,14.60
2015,10,16,05,53,14.60
2015,10,16,05,54,14.60
2015,10,16,05,55,14.60
2015,10,16,05,56,14.50
2015,10,16,05,57,14.50
2015,10,16,05,58,14.40
2015,10,16,05,59,14.40
2015,10,16,06,00,14.40
2015,10,16,06,01,14.40
2015,10,16,06,02,14.30
2015,10,16,06,03,14.40
2015,10,16,06,04,14.40
2015,10,16,06,05,14.40
2015,10,16,06,06,14.50
2015,10,16,06,07,14.50
2015,10,16,06,08,14.60
2015,10,16,06,09,14.60
2015,10,16,06,10,14.60
2015,10,16,06,11,14.60
2015,10,16,06,12,14.60
2015,10,16,06,13,14.70
2015,10,16,06,14,14.70
2015,10,16,06,15,14.70
2015,10,16,06,16,14.70
2015,10,16,06,17,14.70
2015,10,16,06,18,14.80
2015,10,16,06,19,14.80
2015,10,16,06,20,14.80
2015,10,16,06,21,14.80
2015,10,16,06,22,14.80
2015,10,16,06,23,14.80
2015,10,16,06,24,14.80
2015,10,16,06,25,14.80
2015,10,16,06,26,14.90
2015,10,16,06,27,14.90
2015,10,16,06,28,14.90
2015,10,16,06,29,14.90
2015,10,16,06,30,14.90
2015,10,16,06,31,14.90
2015,10,16,06,32,14.80
2015,10,16,06,33,14.70
2015,10,16,06,34,14.70
2015,10,16,06,35,14.60
2015,10,16,06,36,14.50
2015,10,16,06,37,14.40
2015,10,16,06,38,14.40
2015,10,16,06,39,14.30
2015,10,16,06,40,14.30
2015,10,16,06,41,14.30
2015,10,16,06,42,14.30
2015,10,16,06,43,14.20
2015,10,16,06,44,14.20
2015,10,16,06,45,14.10
2015,10,16,06,46,14.10
2015,10,16,06,47,14.00
2015,10,16,06,48,13.90
2015,10,16,06,49,13.90
2015,10,16,06,50,13.80
2015,10,16,06,51,13.80
2015,10,16,06,52,13.70
2015,10,16,06,53,13.70
2015,10,16,06,54,13.60
2015,10,16,06,55,13.60
2015,10,16,06,56,13.50
2015,10,16,06,57,13.50
2015,10,16,06,58,13.40
2015,10,16,06,59,13.30
2015,10,16,07,00,13.30
2015,10,16,07,01,13.20
2015,10,16,07,02,13.20
2015,10,16,07,03,13.10
2015,10,16,07,04,13.10
2015,10,16,07,05,13.00
2015,10,16,07,06,13.00
2015,10,16,07,07,12.80
2015,10,16,07,08,12.70
2015,10,16,07,09,12.60
2015,10,16,07,10,12.50
2015,10,16,07,11,12.40
2015,10,16,07,12,12.30
2015,10,16,07,13,12.30
2015,10,16,07,14,12.40
2015,10,16,07,15,12.40
2015,10,16,07,16,12.50
2015,10,16,07,17,12.60
2015,10,16,07,18,12.60
2015,10,16,07,19,12.60
2015,10,16,07,20,12.70
2015,10,16,07,21,12.70
2015,10,16,07,22,12.70
2015,10,16,07,23,12.80
2015,10,16,07,24,12.80
2015,10,16,07,25,12.90
2015,10,16,07,26,12.90
2015,10,16,07,27,13.00
2015,10,16,07,28,13.10
2015,10,16,07,29,13.10
2015,10,16,07,30,13.10
2015,10,16,07,31,13.20
2015,10,16,07,32,13.20
2015,10,16,07,33,13.20
2015,10,16,07,34,13.20
2015,10,16,07,35,13.10
2015,10,16,07,36,13.10
2015,10,16,07,37,13.10
2015,10,16,07,38,13.10
2015,10,16,07,39,13.00
2015,10,16,07,40,13.00
2015,10,16,07,41,12.90
2015,10,16,07,42,12.90
2015,10,16,07,43,12.90
2015,10,16,07,44,12.80
2015,10,16,07,45,12.80
2015,10,16,07,46,12.80
2015,10,16,07,47,12.80
2015,10,16,07,48,12.70
2015,10,16,07,49,12.70
2015,10,16,07,50,12.70
2015,10,16,07,51,12.60
2015,10,16,07,52,12.60
2015,10,16,07,53,12.60
2015,10,16,07,54,12.50
2015,10,16,07,55,12.50
2015,10,16,07,56,12.40
2015,10,16,07,57,12.40
2015,10,16,07,58,12.40
2015,10,16,07,59,12.30
2015,10,16,08,00,12.30
2015,10,16,08,01,12.30
2015,10,16,08,02,12.30
2015,10,16,08,03,12.30
2015,10,16,08,04,12.30
2015,10,16,08,05,12.20
2015,10,16,08,06,12.20
2015,10,16,08,07,12.20
2015,10,16,08,08,12.20
2015,10,16,08,09,12.10
2015,10,16,08,10,12.10
2015,10,16,08,11,12.10
2015,10,16,08,12,12.10
2015,10,16,08,13,12.10
2015,10,16,08,14,12.20
2015,10,16,08,15,12.30
2015,10,16,08,16,12.40
2015,10,16,08,17,12.50
2015,10,16,08,18,12.70
2015,10,16,08,19,12.80
2015,10,16,08,20,12.80
2015,10,16,08,21,12.80
2015,10,16,08,22,12.80
2015,10,16,08,23,12.80
2015,10,16,08,24,12.70
2015,10,16,08,25,12.70
2015,10,16,08,26,12.70
2015,10,16,08,27,12.70
2015,10,16,08,28,12.70
2015,10,16,08,29,12.60
2015,10,16,08,30,12.60
2015,10,16,08,31,12.60
2015,10,16,08,32,12.60
2015,10,16,08,33,12.60
2015,10,16,08,34,12.60
2015,10,16,08,35,12.60
2015,10,16,08,36,12.60
2015,10,16,08,37,12.60
2015,10,16,08,38,12.60
2015,10,16,08,39,12.60
2015,10,16,08,40,12.60
2015,10,16,08,41,12.60
2015,10,16,08,42,12.60
2015,10,16,08,43,12.60
2015,10,16,08,44,12.60
2015,10,16,08,45,12.60
2015,10,16,08,46,12.60
2015,10,16,08,47,12.60
2015,10,16,08,48,12.70
2015,10,16,08,49,12.70
2015,10,16,08,50,12.80
2015,10,16,08,51,12.80
2015,10,16,08,52,12.90
2015,10,16,08,53,13.00
2015,10,16,08,54,13.00
2015,10,16,08,55,13.10
2015,10,16,08,56,13.10
2015,10,16,08,57,13.20
2015,10,16,08,58,13.20
2015,10,16,08,59,13.30
2015,10,16,09,00,13.30
2015,10,16,09,01,13.40
2015,10,16,09,02,13.50
2015,10,16,09,03,13.50
2015,10,16,09,04,13.60
2015,10,16,09,05,13.60
2015,10,16,09,06,13.70
2015,10,16,09,07,13.70
2015,10,16,09,08,13.80
2015,10,16,09,09,13.80
2015,10,16,09,10,13.80
2015,10,16,09,11,13.90
2015,10,16,09,12,13.90
2015,10,16,09,13,13.90
2015,10,16,09,14,13.90
2015,10,16,09,15,14.00
2015,10,16,09,16,14.00
2015,10,16,09,17,14.00
2015,10,16,09,18,13.90
2015,10,16,09,19,13.90
2015,10,16,09,20,13.90
2015,10,16,09,21,13.90
2015,10,16,09,22,13.90
2015,10,16,09,23,13.90
2015,10,16,09,24,14.00
2015,10,16,09,25,14.00
2015,10,16,09,26,14.00
2015,10,16,09,27,14.00
2015,10,16,09,28,13.90
2015,10,16,09,29,13.90
2015,10,16,09,30,13.90
2015,10,16,09,31,13.90
2015,10,16,09,32,13.90
2015,10,16,09,33,13.90
2015,10,16,09,34,13.90
2015,10,16,09,35,13.90
2015,10,16,09,36,13.90
2015,10,16,09,37,13.90
2015,10,16,09,38,13.90
2015,10,16,09,39,13.90
2015,10,16,09,40,13.90
2015,10,16,09,41,13.90
2015,10,16,09,42,13.90
2015,10,16,09,43,13.90
2015,10,16,09,44,13.90
2015,10,16,09,45,13.90
2015,10,16,09,46,13.90
2015,10,16,09,47,13.90
2015,10,16,09,48,13.90
2015,10,16,09,49,13.90
2015,10,16,09,50,13.90
2015,10,16,09,51,13.90
2015,10,16,09,52,13.90
2015,10,16,09,53,13.90
2015,10,16,09,54,13.90
2015,10,16,09,55,13.90
2015,10,16,09,56,13.90
2015,10,16,09,57,14.00
2015,10,16,09,58,14.00
2015,10,16,09,59,14.00
2015,10,16,10,00,14.10
2015,10,16,10,01,14.10
2015,10,16,10,02,14.20
2015,10,16,10,03,14.20
2015,10,16,10,04,14.20
2015,10,16,10,05,14.20
2015,10,16,10,06,14.20
2015,10,16,10,07,14.20
2015,10,16,10,08,14.10
2015,10,16,10,09,14.10
2015,10,16,10,10,14.20
2015,10,16,10,11,14.20
2015,10,16,10,12,14.10
2015,10,16,10,13,14.10
2015,10,16,10,14,14.10
2015,10,16,10,15,14.20
2015,10,16,10,16,14.20
2015,10,16,10,17,14.10
2015,10,16,10,18,14.20
2015,10,16,10,19,14.10
2015,10,16,10,20,14.10
2015,10,16,10,21,14.10
2015,10,16,10,22,14.10
2015,10,16,10,23,14.20
2015,10,16,10,24,14.20
2015,10,16,10,25,14.20
2015,10,16,10,26,14.20
2015,10,16,10,27,14.20
2015,10,16,10,28,14.20
2015,10,16,10,29,14.30
2015,10,16,10,30,14.30
2015,10,16,10,31,14.30
2015,10,16,10,32,14.40
2015,10,16,10,33,14.40
2015,10,16,10,34,14.40
2015,10,16,10,35,14.40
2015,10,16,10,36,14.40
2015,10,16,10,37,14.50
2015,10,16,10,38,14.50
2015,10,16,10,39,14.50
2015,10,16,10,40,14.60
2015,10,16,10,41,14.60
2015,10,16,10,42,14.60
2015,10,16,10,43,14.60
2015,10,16,10,44,14.70
2015,10,16,10,45,14.80
2015,10,16,10,46,14.80
2015,10,16,10,47,14.90
2015,10,16,10,48,14.90
2015,10,16,10,49,14.90
2015,10,16,10,50,15.00
2015,10,16,10,51,15.00
2015,10,16,10,52,15.00
2015,10,16,10,53,15.10
2015,10,16,10,54,15.10
2015,10,16,10,55,15.10
2015,10,16,10,56,15.10
2015,10,16,10,57,15.10
2015,10,16,10,58,15.10
2015,10,16,10,59,15.20
2015,10,16,11,00,15.20
2015,10,16,11,01,15.20
2015,10,16,11,02,15.20
2015,10,16,11,03,15.30
2015,10,16,11,04,15.30
2015,10,16,11,05,15.30
2015,10,16,11,06,15.40
2015,10,16,11,07,15.40
2015,10,16,11,08,15.40
2015,10,16,11,09,15.40
2015,10,16,11,10,15.50
2015,10,16,11,11,15.50
2015,10,16,11,12,15.60
2015,10,16,11,13,15.60
2015,10,16,11,14,15.60
2015,10,16,11,15,15.70
2015,10,16,11,16,15.70
2015,10,16,11,17,15.70
2015,10,16,11,18,15.80
2015,10,16,11,19,15.80
2015,10,16,11,20,15.80
2015,10,16,11,21,15.80
2015,10,16,11,22,15.90
2015,10,16,11,23,15.90
2015,10,16,11,24,15.90
2015,10,16,11,25,15.90
2015,10,16,11,26,16.00
2015,10,16,11,27,16.00
2015,10,16,11,28,16.00
2015,10,16,11,29,15.90
2015,10,16,11,30,15.90
2015,10,16,11,31,15.90
2015,10,16,11,32,15.90
2015,10,16,11,33,15.90
2015,10,16,11,34,15.90
2015,10,16,11,35,15.90
2015,10,16,11,36,16.00
2015,10,16,11,37,16.00
2015,10,16,11,38,16.10
2015,10,16,11,39,16.10
2015,10,16,11,40,16.10
2015,10,16,11,41,16.10
2015,10,16,11,42,16.20
2015,10,16,11,43,16.20
2015,10,16,11,44,16.20
2015,10,16,11,45,16.20
2015,10,16,11,46,16.20
2015,10,16,11,47,16.30
2015,10,16,11,48,16.30
2015,10,16,11,49,16.30
2015,10,16,11,50,16.30
2015,10,16,11,51,16.30
2015,10,16,11,52,16.30
2015,10,16,11,53,16.30
2015,10,16,11,54,16.40
2015,10,16,11,55,16.40
2015,10,16,11,56,16.40
2015,10,16,11,57,16.40
2015,10,16,11,58,16.40
2015,10,16,11,59,16.40
2015,10,16,12,00,16.50
2015,10,16,12,01,16.50
2015,10,16,12,02,16.50
2015,10,16,12,03,16.60
2015,10,16,12,04,16.60
2015,10,16,12,05,16.60
2015,10,16,12,06,16.60
2015,10,16,12,07,16.60
2015,10,16,12,08,16.70
2015,10,16,12,09,16.70
2015,10,16,12,10,16.70
2015,10,16,12,11,16.70
2015,10,16,12,12,16.60
2015,10,16,12,13,16.50
2015,10,16,12,14,16.40
2015,10,16,12,15,16.40
2015,10,16,12,16,16.30
2015,10,16,12,17,16.30
2015,10,16,12,18,16.30
2015,10,16,12,19,16.30
2015,10,16,12,20,16.30
2015,10,16,12,21,16.30
2015,10,16,12,22,16.30
2015,10,16,12,23,16.30
2015,10,16,12,24,16.30
2015,10,16,12,25,16.30
2015,10,16,12,26,16.30
2015,10,16,12,27,16.40
2015,10,16,12,28,16.40
2015,10,16,12,29,16.40
2015,10,16,12,30,16.50
2015,10,16,12,31,16.50
2015,10,16,12,32,16.60
2015,10,16,12,33,16.60
2015,10,16,12,34,16.70
2015,10,16,12,35,16.70
2015,10,16,12,36,16.70
2015,10,16,12,37,16.70
2015,10,16,12,38,16.70
2015,10,16,12,39,16.70
2015,10,16,12,40,16.70
2015,10,16,12,41,16.80
2015,10,16,12,42,16.80
2015,10,16,12,43,16.80
2015,10,16,12,44,16.80
2015,10,16,12,45,16.80
2015,10,16,12,46,16.80
2015,10,16,12,47,16.80
2015,10,16,12,48,16.70
2015,10,16,12,49,16.70
2015,10,16,12,50,16.70
2015,10,16,12,51,16.60
2015,10,16,12,52,16.60
2015,10,16,12,53,16.70
2015,10,16,12,54,16.70
2015,10,16,12,55,16.80
2015,10,16,12,56,16.80
2015,10,16,12,57,16.80
2015,10,16,12,58,16.70
2015,10,16,12,59,16.70
2015,10,16,13,00,16.70
2015,10,16,13,01,16.60
2015,10,16,13,02,16.50
2015,10,16,13,03,16.50
2015,10,16,13,04,16.60
2015,10,16,13,05,16.60
2015,10,16,13,06,16.70
2015,10,16,13,07,16.80
2015,10,16,13,08,16.80
2015,10,16,13,09,16.90
2015,10,16,13,10,16.90
2015,10,16,13,11,17.00
2015,10,16,13,12,17.00
2015,10,16,13,13,17.00
2015,10,16,13,14,17.00
2015,10,16,13,15,17.10
2015,10,16,13,16,17.10
2015,10,16,13,17,17.10
2015,10,16,13,18,17.10
2015,10,16,13,19,17.20
2015,10,16,13,20,17.20
2015,10,16,13,21,17.30
2015,10,16,13,22,17.30
2015,10,16,13,23,17.30
2015,10,16,13,24,17.30
2015,10,16,13,25,17.30
2015,10,16,13,26,17.30
2015,10,16,13,27,17.30
2015,10,16,13,28,17.30
2015,10,16,13,29,17.30
2015,10,16,13,30,17.30
2015,10,16,13,31,17.30
2015,10,16,13,32,17.20
2015,10,16,13,33,17.20
2015,10,16,13,34,17.20
2015,10,16,13,35,17.20
2015,10,16,13,36,17.20
2015,10,16,13,37,17.20
2015,10,16,13,38,17.30
2015,10,16,13,39,17.20
2015,10,16,13,40,17.20
2015,10,16,13,41,17.10
2015,10,16,13,42,17.10
2015,10,16,13,43,17.10
2015,10,16,13,44,17.00
2015,10,16,13,45,17.00
2015,10,16,13,46,17.00
2015,10,16,13,47,16.90
2015,10,16,13,48,16.80
2015,10,16,13,49,16.80
2015,10,16,13,50,16.80
2015,10,16,13,51,16.80
2015,10,16,13,52,16.80
2015,10,16,13,53,16.80
2015,10,16,13,54,16.80
2015,10,16,13,55,16.80
2015,10,16,13,56,16.80
2015,10,16,13,57,16.80
2015,10,16,13,58,16.80
2015,10,16,13,59,16.80
2015,10,16,14,00,16.80
2015,10,16,14,01,16.80
2015,10,16,14,02,16.80
2015,10,16,14,03,16.70
2015,10,16,14,04,16.50
2015,10,16,14,05,16.50
2015,10,16,14,06,16.40
2015,10,16,14,07,16.30
2015,10,16,14,08,16.30
2015,10,16,14,09,16.20
2015,10,16,14,10,16.20
2015,10,16,14,11,16.20
2015,10,16,14,12,16.10
2015,10,16,14,13,16.10
2015,10,16,14,14,16.10
2015,10,16,14,15,16.10
2015,10,16,14,16,16.10
2015,10,16,14,17,16.10
2015,10,16,14,18,16.20
2015,10,16,14,19,16.20
2015,10,16,14,20,16.30
2015,10,16,14,21,16.30
2015,10,16,14,22,16.20
2015,10,16,14,23,16.10
2015,10,16,14,24,16.10
2015,10,16,14,25,16.10
2015,10,16,14,26,16.10
2015,10,16,14,27,16.10
2015,10,16,14,28,16.10
2015,10,16,14,29,16.00
2015,10,16,14,30,15.90
2015,10,16,14,31,15.90
2015,10,16,14,32,15.80
2015,10,16,14,33,15.80
2015,10,16,14,34,15.80
2015,10,16,14,35,15.70
2015,10,16,14,36,15.70
2015,10,16,14,37,15.70
2015,10,16,14,38,15.60
2015,10,16,14,39,15.60
2015,10,16,14,40,15.60
2015,10,16,14,41,15.60
2015,10,16,14,42,15.60
2015,10,16,14,43,15.60
2015,10,16,14,44,15.60
2015,10,16,14,45,15.60
2015,10,16,14,46,15.70
2015,10,16,14,47,15.70
2015,10,16,14,48,15.70
2015,10,16,14,49,15.70
2015,10,16,14,50,15.70
2015,10,16,14,51,15.70
2015,10,16,14,52,15.70
2015,10,16,14,53,15.70
2015,10,16,14,54,15.80
2015,10,16,14,55,15.80
2015,10,16,14,56,15.80
2015,10,16,14,57,15.80
2015,10,16,14,58,15.80
2015,10,16,14,59,15.80
2015,10,16,15,00,15.80
2015,10,16,15,01,15.80
2015,10,16,15,02,15.80
2015,10,16,15,03,15.80
2015,10,16,15,04,15.70
2015,10,16,15,05,15.70
2015,10,16,15,06,15.70
2015,10,16,15,07,15.60
2015,10,16,15,08,15.60
2015,10,16,15,09,15.60
2015,10,16,15,10,15.60
2015,10,16,15,11,15.60
2015,10,16,15,12,15.60
2015,10,16,15,13,15.60
2015,10,16,15,14,15.60
2015,10,16,15,15,15.60
2015,10,16,15,16,15.60
2015,10,16,15,17,15.60
2015,10,16,15,18,15.70
2015,10,16,15,19,15.70
2015,10,16,15,20,15.70
2015,10,16,15,21,15.70
2015,10,16,15,22,15.70
2015,10,16,15,23,15.70
2015,10,16,15,24,15.80
2015,10,16,15,25,15.80
2015,10,16,15,26,15.80
2015,10,16,15,27,15.80
2015,10,16,15,28,15.80
2015,10,16,15,29,15.80
2015,10,16,15,30,15.80
2015,10,16,15,31,15.90
2015,10,16,15,32,16.00
2015,10,16,15,33,16.00
2015,10,16,15,34,16.00
2015,10,16,15,35,16.10
2015,10,16,15,36,16.10
2015,10,16,15,37,16.10
2015,10,16,15,38,16.10
2015,10,16,15,39,16.10
2015,10,16,15,40,16.00
2015,10,16,15,41,16.00
2015,10,16,15,42,16.00
2015,10,16,15,43,16.10
2015,10,16,15,44,16.10
2015,10,16,15,45,16.10
2015,10,16,15,46,16.20
2015,10,16,15,47,16.20
2015,10,16,15,48,16.20
2015,10,16,15,49,16.20
2015,10,16,15,50,16.20
2015,10,16,15,51,16.10
2015,10,16,15,52,16.10
2015,10,16,15,53,16.10
2015,10,16,15,54,16.20
2015,10,16,15,55,16.20
2015,10,16,15,56,16.20
2015,10,16,15,57,16.20
2015,10,16,15,58,16.20
2015,10,16,15,59,16.20
2015,10,16,16,00,16.30
2015,10,16,16,01,16.30
2015,10,16,16,02,16.30
2015,10,16,16,03,16.30
2015,10,16,16,04,16.30
2015,10,16,16,05,16.30
2015,10,16,16,06,16.40
2015,10,16,16,07,16.40
2015,10,16,16,08,16.40
2015,10,16,16,09,16.40
2015,10,16,16,10,16.40
2015,10,16,16,11,16.30
2015,10,16,16,12,16.30
2015,10,16,16,13,16.30
2015,10,16,16,14,16.30
2015,10,16,16,15,16.20
2015,10,16,16,16,16.20
2015,10,16,16,17,16.10
2015,10,16,16,18,16.10
2015,10,16,16,19,16.00
2015,10,16,16,20,15.90
2015,10,16,16,21,15.80
2015,10,16,16,22,15.80
2015,10,16,16,23,15.70
2015,10,16,16,24,15.60
2015,10,16,16,25,15.60
2015,10,16,16,26,15.50
2015,10,16,16,27,15.40
2015,10,16,16,28,15.40
2015,10,16,16,29,15.30
2015,10,16,16,30,15.30
2015,10,16,16,31,15.20
2015,10,16,16,32,15.20
2015,10,16,16,33,15.20
2015,10,16,16,34,15.10
2015,10,16,16,35,15.00
2015,10,16,16,36,15.00
2015,10,16,16,37,14.90
2015,10,16,16,38,14.90
2015,10,16,16,39,14.80
2015,10,16,16,40,14.80
2015,10,16,16,41,14.80
2015,10,16,16,42,14.80
2015,10,16,16,43,14.80
2015,10,16,16,44,14.80
2015,10,16,16,45,14.80
2015,10,16,16,46,14.70
2015,10,16,16,47,14.70
2015,10,16,16,48,14.70
2015,10,16,16,49,14.70
2015,10,16,16,50,14.70
2015,10,16,16,51,14.70
2015,10,16,16,52,14.70
2015,10,16,16,53,14.70
2015,10,16,16,54,14.70
2015,10,16,16,55,14.70
2015,10,16,16,56,14.70
2015,10,16,16,57,14.70
2015,10,16,16,58,14.70
2015,10,16,16,59,14.70
2015,10,16,17,00,14.60
2015,10,16,17,01,14.60
2015,10,16,17,02,14.60
2015,10,16,17,03,14.60
2015,10,16,17,04,14.60
2015,10,16,17,05,14.60
2015,10,16,17,06,14.70
2015,10,16,17,07,14.70
2015,10,16,17,08,14.70
2015,10,16,17,09,14.60
2015,10,16,17,10,14.60
2015,10,16,17,11,14.60
2015,10,16,17,12,14.60
2015,10,16,17,13,14.60
2015,10,16,17,14,14.60
2015,10,16,17,15,14.60
2015,10,16,17,16,14.60
2015,10,16,17,17,14.60
2015,10,16,17,18,14.60
2015,10,16,17,19,14.60
2015,10,16,17,20,14.60
2015,10,16,17,21,14.60
2015,10,16,17,22,14.60
2015,10,16,17,23,14.60